Flag for Canada Weather past 2 weeks in Sherbrooke, Quebec, Canada

Now
55 °F

Fog.


Feels Like: 55 °F
Forecast: 58 / 72 °F
Wind: 2 mph from Southeast

Location: Sherbrooke

Current Time: Aug 4, 2015 at 6:50:14 AM

Latest Report: Aug 4, 2015 at 6:02 AM


Visibility: 2 mi

Pressure: 29.81 "Hg

Humidity: 94%

Dew point: 54 °F

Location of SherbrookeLocation

Historic Weather in Sherbrooke — Graph

°F

Sherbrooke temperature yesterday

Maximum temperature yesterday: 81 °F (at 12:00 PM)
Minimum temperature yesterday: 57 °F (at 12:00 AM)
Average temperature yesterday: 69 °F

Past Weeks' High & Low Weather Summary

 TemperatureHumidityPressure
High86 °F (Jul 29, 2:00 PM)100% (Jul 20, 6:00 AM)30.05 "Hg (Jul 20, 6:00 AM)
Low52 °F (Aug 2, 3:55 AM)47% (Jul 31, 5:00 PM)29.53 "Hg (Jul 21, 2:00 PM)
Average66 °F83%29.82 "Hg
* Reported Jul 20 6:00 AM — Aug 4 6:02 AM, Sherbrooke, Weather by CustomWeather, © 2015

Note: Actual official high and low records may vary slightly from our data, if they occured in-between our weather recording intervals... More about our weather records

Advertising

Sherbrooke weather history for previous 24 hours

 ConditionsComfort  
Time TempWeatherWind HumidityBarometerVisibility
6:02 AM
Tue, Aug 4
55 °FFog.2 mph94%29.81 "Hg2 mi
5:00 AM55 °FFog.2 mph100%29.80 "Hg3 mi
4:00 AM57 °FFog.2 mph94%29.78 "Hg1 mi
3:52 AM57 °FFog.2 mph94%29.78 "Hg1 mi
3:03 AM57 °FFog.No wind100%29.78 "Hg3 mi
2:00 AM59 °FFog.No wind94%29.77 "Hg4 mi
1:59 AM59 °FFog.No wind94%29.77 "Hg5 mi
1:00 AM63 °FClear.3 mph94%29.77 "Hg9 mi
12:00 AM63 °FClear.No wind94%29.76 "Hg9 mi
11:00 PM
Mon, Aug 3
66 °FPassing clouds.3 mph94%29.76 "Hg9 mi
10:51 PM66 °FFog.No wind94%29.76 "Hg6 mi
10:00 PM66 °FMostly cloudy.No wind100%29.76 "Hg9 mi
9:00 PM66 °FScattered clouds.5 mph94%29.73 "Hg9 mi
8:00 PM68 °FCloudy.2 mph94%29.72 "Hg9 mi
7:00 PM70 °FSunny.3 mph88%29.71 "Hg7 mi
6:00 PM70 °FBroken clouds.6 mph88%29.70 "Hg9 mi
5:00 PM72 °FPassing clouds.3 mph88%29.71 "Hg9 mi
4:00 PM70 °FThunderstorms. Mostly cloudy.5 mph88%29.72 "Hg9 mi
3:01 PM79 °FThunderstorms. Scattered clouds.8 mph61%29.69 "Hg9 mi
2:00 PM77 °FSunny.13 mph65%29.71 "Hg9 mi
1:00 PM77 °FThunderstorms. Partly sunny.16 mph65%29.71 "Hg9 mi
12:52 PM79 °FThunderstorms. Partly sunny.17 mph58%29.71 "Hg9 mi
12:00 PM81 °FScattered clouds.8 mph58%29.70 "Hg9 mi
11:00 AM79 °FScattered clouds.13 mph61%29.70 "Hg9 mi
10:00 AM79 °FSunny.16 mph54%29.69 "Hg9 mi
9:00 AM75 °FPassing clouds.9 mph61%29.68 "Hg9 mi
8:00 AM72 °FSunny.6 mph69%29.69 "Hg9 mi
7:00 AM64 °FSunny.2 mph83%29.71 "Hg9 mi
6:00 AM57 °FClear.3 mph94%29.71 "Hg9 mi
Weather by CustomWeather, © 2015

See weather overviewHow to use our weather pages